| time (UTC) | temp F | wind direction | speed MPH | gust MPH | rain 1hr in | rain 24hr in | rain mn in | humidity % | barometer mb |
| 20260504190206 | 77 | 273 | 8.0 | 29.0 | 0.00 | 0.00 | 0.00 | 28 | |
| 20260504185206 | 77 | 267 | 10.0 | 24.0 | 0.00 | 0.00 | 0.00 | 28 | |
| 20260504184206 | 76 | 277 | 9.0 | 24.0 | 0.00 | 0.00 | 0.00 | 28 | |
| 20260504183205 | 77 | 278 | 7.0 | 23.0 | 0.00 | 0.00 | 0.00 | 28 | |
| 20260504182206 | 75 | 276 | 10.0 | 25.0 | 0.00 | 0.00 | 0.00 | 28 | |
| 20260504181206 | 75 | 283 | 9.0 | 26.0 | 0.00 | 0.00 | 0.00 | 29 | |
| 20260504180206 | 75 | 256 | 12.0 | 24.0 | 0.00 | 0.00 | 0.00 | 29 | |
| 20260504175206 | 75 | 277 | 7.0 | 23.0 | 0.00 | 0.00 | 0.00 | 28 | |
| 20260504174205 | 76 | 270 | 7.0 | 18.0 | 0.00 | 0.00 | 0.00 | 27 | |
| 20260504173206 | 75 | 253 | 10.0 | 25.0 | 0.00 | 0.00 | 0.00 | 28 | |
| 20260504172205 | 75 | 274 | 7.0 | 18.0 | 0.00 | 0.00 | 0.00 | 28 | |
| 20260504171206 | 75 | 240 | 10.0 | 22.0 | 0.00 | 0.00 | 0.00 | 27 | |
| 20260504170206 | 75 | 248 | 8.0 | 21.0 | 0.00 | 0.00 | 0.00 | 26 | |
| 20260504160205 | 73 | 240 | 11.0 | 24.0 | 0.00 | 0.00 | 0.00 | 26 | |
| 20260504150205 | 70 | 231 | 6.0 | 15.0 | 0.00 | 0.00 | 0.00 | 32 | |
| 20260504141205 | 65 | 246 | 8.0 | 18.0 | 0.00 | 0.00 | 0.00 | 37 | |
| 20260504140206 | 65 | 249 | 8.0 | 16.0 | 0.00 | 0.00 | 0.00 | 37 | |
| 20260504130206 | 59 | 273 | 5.0 | 16.0 | 0.00 | 0.00 | 0.00 | 45 | |
| 20260504120206 | 53 | 254 | 4.0 | 9.0 | 0.00 | 0.00 | 0.00 | 56 | |
| 20260504110205 | 51 | 267 | 1.0 | 3.0 | 0.00 | 0.00 | 0.00 | 58 | |
| 20260504100206 | 51 | 218 | 0.0 | 1.0 | 0.00 | 0.00 | 0.00 | 58 | |
| 20260504081205 | 53 | 263 | 0.0 | 2.0 | 0.00 | 0.00 | 0.00 | 53 | |
| 20260504080206 | 54 | 249 | 1.0 | 3.0 | 0.00 | 0.00 | 0.00 | 52 | |
| 20260504070206 | 53 | 183 | 1.0 | 2.0 | 0.00 | 0.00 | 0.00 | 54 | |
| 20260504060206 | 55 | 242 | 0.0 | 0.0 | 0.00 | 0.00 | 0.00 | 51 | |
| 20260504050206 | 57 | 243 | 1.0 | 3.0 | 0.00 | 0.00 | 0.00 | 49 | |
| 20260504045206 | 57 | 218 | 1.0 | 2.0 | 0.00 | 0.00 | 0.00 | 49 | |
| 20260504044205 | 57 | 256 | 1.0 | 2.0 | 0.00 | 0.00 | 0.00 | 50 | |
| 20260504043209 | 56 | 263 | 0.0 | 2.0 | 0.00 | 0.00 | 0.00 | 51 | |
| 20260504042206 | 56 | 222 | 0.0 | 1.0 | 0.00 | 0.00 | 0.00 | 51 | |
| 20260504041206 | 56 | 246 | 0.0 | 0.0 | 0.00 | 0.00 | 0.00 | 51 | |
| 20260504040206 | 57 | 246 | 0.0 | 0.0 | 0.00 | 0.00 | 0.00 | 51 | |
| 20260504035205 | 57 | 246 | 0.0 | 0.0 | 0.00 | 0.00 | 0.00 | 50 | |
| 20260504034206 | 57 | 246 | 0.0 | 0.0 | 0.00 | 0.00 | 0.00 | 50 | |
| 20260504033206 | 58 | 246 | 0.0 | 0.0 | 0.00 | 0.00 | 0.00 | 50 | |
| 20260504032206 | 58 | 259 | 0.0 | 1.0 | 0.00 | 0.00 | 0.00 | 50 | |
| 20260504031205 | 58 | 257 | 0.0 | 0.0 | 0.00 | 0.00 | 0.00 | 49 | |
| 20260504030206 | 58 | 257 | 0.0 | 0.0 | 0.00 | 0.00 | 0.00 | 50 | |
| 20260504025206 | 58 | 257 | 0.0 | 0.0 | 0.00 | 0.00 | 0.00 | 49 | |
| 20260504024206 | 59 | 258 | 0.0 | 1.0 | 0.00 | 0.00 | 0.00 | 49 | |
| 20260504023206 | 59 | 257 | 0.0 | 1.0 | 0.00 | 0.00 | 0.00 | 48 | |
| 20260504022205 | 60 | 199 | 0.0 | 0.0 | 0.00 | 0.00 | 0.00 | 48 | |
| 20260504021206 | 61 | 199 | 0.0 | 0.0 | 0.00 | 0.00 | 0.00 | 47 | |
| 20260504020206 | 61 | 199 | 0.0 | 2.0 | 0.00 | 0.00 | 0.00 | 46 | |
| 20260504015206 | 61 | 239 | 0.0 | 2.0 | 0.00 | 0.00 | 0.00 | 45 | |
| 20260504014205 | 62 | 226 | 0.0 | 1.0 | 0.00 | 0.00 | 0.00 | 45 | |
| 20260504013206 | 62 | 2 | 0.0 | 0.0 | 0.00 | 0.00 | 0.00 | 44 | |
| 20260504012205 | 63 | 2 | 0.0 | 0.0 | 0.00 | 0.00 | 0.00 | 44 | |
| 20260504011206 | 65 | 2 | 0.0 | 1.0 | 0.00 | 0.00 | 0.00 | 41 | |
| 20260504010205 | 66 | 216 | 0.0 | 1.0 | 0.00 | 0.00 | 0.00 | 38 | |
| 20260504005206 | 68 | 220 | 0.0 | 1.0 | 0.00 | 0.00 | 0.00 | 36 | |
| 20260504004206 | 69 | 228 | 0.0 | 5.0 | 0.00 | 0.00 | 0.00 | 34 | |
| 20260504003209 | 69 | 337 | 3.0 | 8.0 | 0.00 | 0.00 | 0.00 | 32 | |
| 20260504002205 | 70 | 303 | 2.0 | 10.0 | 0.00 | 0.00 | 0.00 | 31 | |
| 20260504001206 | 70 | 329 | 3.0 | 12.0 | 0.00 | 0.00 | 0.00 | 31 | |
| 20260504000206 | 71 | 310 | 3.0 | 8.0 | 0.00 | 0.00 | 0.00 | 30 | |
| 20260503235205 | 71 | 301 | 5.0 | 8.0 | 0.00 | 0.00 | 0.00 | 31 | |
| 20260503234205 | 71 | 279 | 5.0 | 12.0 | 0.00 | 0.00 | 0.00 | 32 | |
| 20260503233205 | 71 | 325 | 5.0 | 10.0 | 0.00 | 0.00 | 0.00 | 30 | |
| 20260503232206 | 71 | 311 | 5.0 | 12.0 | 0.00 | 0.00 | 0.00 | 31 | |
| 20260503231206 | 71 | 300 | 5.0 | 17.0 | 0.00 | 0.00 | 0.00 | 32 | |
| 20260503230205 | 71 | 293 | 4.0 | 12.0 | 0.00 | 0.00 | 0.00 | 32 | |
| 20260503225206 | 72 | 335 | 5.0 | 9.0 | 0.00 | 0.00 | 0.00 | 34 | |
| 20260503224206 | 71 | 276 | 5.0 | 15.0 | 0.00 | 0.00 | 0.00 | 34 | |
| 20260503223205 | 70 | 268 | 8.0 | 15.0 | 0.00 | 0.00 | 0.00 | 34 | |
| 20260503222205 | 71 | 245 | 7.0 | 13.0 | 0.00 | 0.00 | 0.00 | 34 | |
| 20260503221206 | 71 | 295 | 6.0 | 17.0 | 0.00 | 0.00 | 0.00 | 33 | |
| 20260503220206 | 71 | 300 | 6.0 | 12.0 | 0.00 | 0.00 | 0.00 | 34 | |
| 20260503215205 | 70 | 253 | 6.0 | 18.0 | 0.00 | 0.00 | 0.00 | 36 | |
| 20260503214205 | 70 | 265 | 5.0 | 16.0 | 0.00 | 0.00 | 0.00 | 36 | |
| 20260503213206 | 69 | 274 | 7.0 | 16.0 | 0.00 | 0.00 | 0.00 | 37 | |
| 20260503212206 | 69 | 269 | 5.0 | 18.0 | 0.00 | 0.00 | 0.00 | 38 | |
| 20260503211206 | 70 | 290 | 5.0 | 15.0 | 0.00 | 0.00 | 0.00 | 38 | |
| 20260503210205 | 69 | 270 | 5.0 | 13.0 | 0.00 | 0.00 | 0.00 | 38 | |
| 20260503205206 | 69 | 261 | 7.0 | 20.0 | 0.00 | 0.00 | 0.00 | 38 | |
| 20260503204205 | 68 | 262 | 5.0 | 20.0 | 0.00 | 0.00 | 0.00 | 39 | |
| 20260503203209 | 68 | 247 | 6.0 | 14.0 | 0.00 | 0.00 | 0.00 | 39 | |
| 20260503202206 | 68 | 250 | 6.0 | 22.0 | 0.00 | 0.00 | 0.00 | 40 | |
| 20260503201206 | 68 | 239 | 9.0 | 17.0 | 0.00 | 0.00 | 0.00 | 39 | |
| 20260503200206 | 68 | 268 | 6.0 | 23.0 | 0.00 | 0.00 | 0.00 | 41 | |
| 20260503195207 | 67 | 249 | 7.0 | 18.0 | 0.00 | 0.00 | 0.00 | 40 | |
| 20260503194206 | 66 | 273 | 10.0 | 20.0 | 0.00 | 0.00 | 0.00 | 41 | |
| 20260503193205 | 66 | 296 | 9.0 | 20.0 | 0.00 | 0.00 | 0.00 | 40 | |
| 20260503192206 | 66 | 251 | 6.0 | 17.0 | 0.00 | 0.00 | 0.00 | 41 | |
| 20260503191206 | 66 | 266 | 8.0 | 18.0 | 0.00 | 0.00 | 0.00 | 40 |